This demonstration page uses our WeatherBlox Daily Observations layout. Learn more.

Left ArrowRight Arrow

34.02893, -84.19858

Hourly Observations for February 14, 2017

Temp ( °F °C ) Dew Point ( °F °C ) Humidity (%) Winds ( mph kmh ) Pressure ( in mb ) Visibility ( mi km ) Precip ( " mm )
12:53 am 00:53 Clear 41 5 23 -5 49 49 SW 3 6 30.04 1017 10 16 0.00 0.00
1:53 am 01:53 Clear 38 3.3 22 -5.6 52 52 Calm 30.03 1017 10 16 0.00 0.00
2:53 am 02:53 Clear 36 2.2 26 -3.3 67 67 Calm 30.01 1016 10 16 0.00 0.00
3:53 am 03:53 Clear 34 1.1 26 -3.3 73 73 Calm 30.00 1016 10 16 0.00 0.00
4:53 am 04:53 Clear 34 1.1 26 -3.3 73 73 Calm 30.00 1016 10 16 0.00 0.00
5:53 am 05:53 Clear 33 0.6 25 -3.9 72 72 Calm 30.01 1016 10 16 0.00 0.00
6:53 am 06:53 Clear 32 0 26 -3.3 79 79 Calm 30.02 1017 10 16 0.00 0.00
7:53 am 07:53 Sunny 34 1.1 27 -2.8 76 76 Calm 30.04 1017 10 16 0.00 0.00
8:53 am 08:53 Sunny 44 6.7 29 -1.7 55 55 Calm 30.04 1017 10 16 0.00 0.00
9:53 am 09:53 Sunny 52 11.1 27 -2.8 38 38 Calm 30.03 1017 10 16 0.00 0.00
10:53 am 10:53 Sunny 58 14.4 27 -2.8 31 31 SW 7 11 30.00 1016 10 16 0.00 0.00
11:53 am 11:53 Sunny 63 17.2 28 -2.2 27 27 SW 7 11 29.97 1015 10 16 0.00 0.00
12:53 pm 12:53 Sunny 65 18.3 26 -3.3 23 23 WNW 6 9 29.93 1014 10 16 0.00 0.00
1:53 pm 13:53 Sunny 68 20 25 -3.9 20 20 VRB 6 9 29.91 1013 10 16 0.00 0.00
2:53 pm 14:53 Mostly Cloudy 68 20 23 -5 18 18 SW 8 13 29.89 1012 10 16 0.00 0.00
3:53 pm 15:53 Mostly Cloudy 68 20 24 -4.4 19 19 W 9 15 29.88 1012 10 16 0.00 0.00
4:53 pm 16:53 Sunny 67 19.4 24 -4.4 20 20 W 8 13 29.86 1011 10 16 0.00 0.00
5:53 pm 17:53 Cloudy 65 18.3 25 -3.9 22 22 WNW 5 7 29.87 1011 10 16 0.00 0.00
6:53 pm 18:53 Cloudy 63 17.2 26 -3.3 25 25 NW 3 6 29.86 1011 10 16 0.00 0.00
7:53 pm 19:53 Mostly Cloudy 58 14.4 29 -1.7 33 33 Calm 29.85 1011 10 16 0.00 0.00
8:53 pm 20:53 Mostly Clear 55 12.8 30 -1.1 38 38 Calm 29.83 1010 10 16 0.00 0.00
9:53 pm 21:53 Mostly Cloudy 56 13.3 33 0.6 42 42 Calm 29.82 1010 10 16 0.00 0.00
10:53 pm 22:53 Mostly Cloudy 53 11.7 32 0 45 45 Calm 29.79 1009 10 16 0.00 0.00
11:53 pm 23:53 Clear 51 10.6 35 1.7 54 54 Calm 29.76 1008 10 16 0.00 0.00

Powered by AerisWeather